Location: Newark
(48.6461°N, 4.3644°W)
Time: 18:19:32
(UTC+00:00)

Transit 4A - Pass Details

Date: 20 January 2020
Orbit: 872 x 973 km, 66.8° (Epoch: 16 February)

Event Time Altitude Azimuth Distance (km) Brightness Sun altitude
Rises 07:02:55 0° 178° (S) 3,555 11.2 -9.6°
Reaches altitude 10° 07:05:46 10° 168° (SSE) 2,599 10.7 -9.1°
Maximum altitude 07:10:49 29° 110° (ESE) 1,600 10.2 -8.3°
Drops below altitude 10° 07:15:47 10° 53° (NE) 2,560 10.7 -7.6°
Sets 07:18:34 0° 42° (NE) 3,492 11.2 -7.2°
